Tracking 28091 objects as of 30-Sep-2023
HD Live streaming from Space Station
objects crossing your sky now

STARLINK-5514

Track STARLINK-5514 now!
10-day predictions
STARLINK-5514 is classified as:


NORAD ID: 57248
Int'l Code: 2023-094AG
Perigee: 565.3 km
Apogee: 567.0 km
Inclination: 43.0 °
Period: 95.8 minutes
Semi major axis: 6937 km
RCS: Unknown
Launch date: July 7, 2023
Source: United States (US)
Launch site: AIR FORCE WESTERN TEST RANGE (AFWTR)
Your satellite tracking list
Your tracking list is empty




NASA's NSSDC Master Catalog

Two Line Element Set (TLE):
1 57248U 23094AG  23273.13433377  .00001660  00000-0  13789-3 0  9996
2 57248  43.0016 182.0632 0001217 247.8568 112.2145 15.02546328 13337
Source of the keplerian elements: AFSPC